Regional Weather Roundup
Issued by NWS Kansas City/Pleasant Hill, MO

Home | Current Version | Previous Version | Text Only | Print | Product List | Glossary On
Versions: 1 2 3 4 5 6 7 8 9 10 11 12 13 14 15 16 17 18 19 20 21 22 23 24 25 26 27 28 29 30 31 32 33 34 35 36 37 38 39 40 41 42 43 44 45 46 47 48 49 50
000
ASUS43 KEAX 171110
RWREAX

WEATHER ROUNDUP FOR EASTERN KANSAS AND NORTHWEST MISSOURI
NATIONAL WEATHER SERVICE KANSAS CITY/PLEASANT HILL MO
500 AM CST SUN DEC 17 2017

KSZ040-057-103>105-MOZ028-029-037-043-171200-
...KANSAS CITY METROPOLITAN AREA...

CITY           SKY/WX    TMP DP  RH WIND       PRES   REMARKS
K.C. INTL      DRIZZLE   44  38  79 SW16      29.97R
K.C. DOWNTOWN  CLOUDY    46  39  76 SW9       29.99R
LEES SUMMIT    LGT RAIN  44  39  82 SW16      29.98S
OLATHE - IXD   RAIN      42  42 100 S8        29.99R FOG
OLATHE - OJC   RAIN      42  42 100 SW9       29.98R FOG
LAWRENCE       LGT RAIN  43  42  97 SE3       29.99R FOG

$$

MOZ001>008-011>017-020>025-030>033-038>040-044>046-053-054-171200-
...NORTHERN AND CENTRAL MISSOURI...

CITY           SKY/WX    TMP DP  RH WIND       PRES   REMARKS
ST. JOSEPH     LGT RAIN  45  35  68 W3        29.95F
MOSBY          LGT RAIN  46  32  57 SW7       29.97R
WARRENSBURG    LGT RAIN  43  36  75 S8        29.99S
WHITEMAN AFB   DRIZZLE   43  39  87 SW10      29.95F
CLINTON        LGT RAIN  41  41 100 S7        30.03R
SEDALIA        CLOUDY    46  40  79 SW12      30.01S
WARSAW         NOT AVBL
CHILLICOTHE      N/A     46  28  49 S6        29.95F
KIRKSVILLE     CLOUDY    44  31  60 SW6       29.97F

$$

MOZ041-047>049-056>058-063>065-088>090-097-171200-
...EASTERN AND SOUTHERN MISSOURI...

CITY           SKY/WX    TMP DP  RH WIND       PRES   REMARKS
ST. LOUIS INTL CLOUDY    45  30  55 SE5       30.06F
SPIRIT OF STL  CLOUDY    44  32  62 CALM      30.05F
COLUMBIA       CLOUDY    45  30  55 S8        30.02F
JEFFERSON CITY CLOUDY    44  30  57 E7        30.04S
ROLLA          CLOUDY    45  29  53 S10       30.05F
OSAGE BEACH    CLOUDY    45  30  55 S5        30.04S
SPRINGFIELD    RAIN      41  41 100 SE10      29.97F FOG     WCI  35
BRANSON        CLOUDY    39  39 100 SE13      29.96F FOG     WCI  32
JOPLIN         LGT RAIN  42  42 100 SE5       30.00F FOG
WEST PLAINS    LGT RAIN  41  39  93 E6        30.03F

$$

IAZ060-094-KSZ022-034>040-054-083-096-NEZ052-066-093-171200-
...KANSAS...SOUTHEAST NEBRASKA AND IOWA...

CITY           SKY/WX    TMP DP  RH WIND       PRES   REMARKS
TOPEKA         LGT RAIN  44  44 100 CALM      29.98R FOG
MANHATTAN      LGT RAIN  43  41  93 CALM      29.93F
EMPORIA        LGT RAIN  42  41  96 SE6       29.95S
CHANUTE        CLOUDY    43  42  97 S10       29.99S
WICHITA        CLOUDY    44  42  93 S13       29.94R
OMAHA          CLOUDY    30  24  78 N10       29.98R WCI  21
LINCOLN        CLOUDY    32  27  81 N8        30.00R WCI  25
FALLS CITY     LGT RAIN  41  38  89 S8        29.94F
LAMONI         CLOUDY    40  26  57 S5        29.94F
DES MOINES     CLOUDY    31  24  75 NE5       29.98S WCI  26

$$




USA.gov is the U.S. government's official web portal to all federal, state and local government web resources and services.